Regional Weather Roundup
Issued by NWS

Home | Current Version | Previous Version | Graphics & Text | Print | Product List | Glossary On
Versions: 1 2 3 4 5 6 7 8 9 10 11 12 13 14 15 16 17 18 19 20 21 22 23 24 25 26 27 28 29 30 31 32 33 34 35 36 37 38 39 40 41 42 43 44 45 46 47 48 49 50
000
ASUS45 KABQ 240301
RWRNM
NEW MEXICO REGIONAL WEATHER ROUNDUP
NATIONAL WEATHER SERVICE ALBUQUERQUE NM
900 PM MDT THU MAR 23 2017

NOTE: "FAIR" MEANS FEW OR NO CLOUDS BELOW 12,000 FEET AGL WITH NO
       SIGNIFICANT WEATHER OR OBSTRUCTIONS TO VISION.

      THIS PRODUCT IS RELEASED AS TWO VERSIONS.  ONE VERSION NEAR
      THE TOP OF THE HOUR CONTAINING PRELIMINARY DATA FROM ALBUQUERQUE
      AND OTHER STATIONS.  A FINAL VERSION WITH ADDITIONAL DATA IS
      ISSUED ABOUT 10 MINUTES AFTER THE HOUR.

NMZ501-503-504-510>518-240400-
NORTHWEST PLATEAU/NORTHCENTRAL MOUNTAINS

CITY           SKY/WX    TMP DP  RH WIND       PRES   REMARKS
FARMINGTON     CLOUDY    42 N/A N/A W12       29.80S
LOS ALAMOS     MOCLDY    34  29  80 W12G20    29.74F WCI  26
SANTA FE       MOCLDY    35  35 100 SW9       29.77S WCI  28
TAOS             N/A     34  27  75 SW9       29.70F WCI  26
ANGEL FIRE     SNOW      29  27  91 W25G38    29.64F VSB 1/2 WCI  14

$$
NMZ402-403-502-505>509-240400-
WESTCENTRAL MOUNTAINS/SOUTHWEST MOUNTAINS

CITY           SKY/WX    TMP DP  RH WIND       PRES   REMARKS
GALLUP         CLOUDY    34  32  92 SW15      29.93R WCI  24
GRANTS         CLOUDY    34  30  86 W6        29.92S WCI  29
SILVER CITY    FAIR      39  29  68 W7        30.05S WCI  34

$$
NMZ407-409-411-412-240400-
SOUTHERN DESERTS

CITY           SKY/WX    TMP DP  RH WIND       PRES   REMARKS
DEMING         FAIR      47  29  49 NW12      30.05R
LAS CRUCES     FAIR      50  24  35 W18G25    30.01R
ALAMOGORDO     FAIR      52  23  32 W14G21    29.98R
T OR C         FAIR      46  22  38 NW16      29.97R

$$
NMZ519>523-240400-
CENTRAL VALLEYS/CENTRAL HIGHLANDS

CITY           SKY/WX    TMP DP  RH WIND       PRES   REMARKS
ALBUQUERQUE    MOCLDY    43  27  53 SW16G23   29.86R
DOUBLE EAGLE   MOCLDY    39  25  56 SW29G37   29.83R WCI  28
MORIARTY ARPT  FAIR      40  31  70 W25       29.83R WCI  29
CLINES CORNERS FAIR      33  29  85 W23G32    29.80R WCI  21
BELEN          FAIR      41  31  65 W26G35    29.87S
SOCORRO        FAIR      48  21  34 NW21G26   29.91R

$$
NMZ524>526-539-540-240400-
SOUTHCENTRAL MOUNTAINS

CITY           SKY/WX    TMP DP  RH WIND       PRES   REMARKS
RUIDOSO        NOT AVBL

$$
NMZ527>531-240400-
NORTHEAST HIGHLANDS/NORTHEAST PLAINS

CITY           SKY/WX    TMP DP  RH WIND       PRES   REMARKS
LAS VEGAS      FAIR      35  27  72 W22G29    29.65R WCI  23
RATON          FAIR      46  24  42 CALM      29.50F
CLAYTON        FAIR      58  31  35 SW9G18    29.57R

$$
NMZ532>537-240400-
EASTCENTRAL PLAINS

CITY           SKY/WX    TMP DP  RH WIND       PRES   REMARKS
SANTA ROSA     FAIR      46  31  54 W31G41    29.68S
TUCUMCARI      FAIR      53  31  42 W33G44    29.63R
CANNON AFB     NOT AVBL
CLOVIS AIRPORT FAIR      55  27  33 W31G37    29.75R

$$
NMZ028-029-538-240400-
SOUTHEAST PLAINS

CITY           SKY/WX    TMP DP  RH WIND       PRES   REMARKS
ROSWELL        FAIR      58  22  24 W26G36      N/A
ARTESIA        FAIR      61  16  17 W40G49    29.79R
CARLSBAD       FAIR      62  15  16 MISG      29.84R
HOBBS          FAIR      63  18  17 W20G28    29.88R


$$




USA.gov is the U.S. government's official web portal to all federal, state and local government web resources and services.